SCP
0 0 0 0 0 0 0 0 0 0 0 0 0 0 0 0 0 0 0 0 0 0 0 0 0 0 0 0 0 0 0 0 0 0 0 0 -0 -0 -0 -0 -0 -0 0 -0 -0 0 0 -0 0 0 0 0 0 0
0 0 0 0 0 0 0 0 0 0 0 0 0 0 0 0 0 0 0 0 0 0 -0 -0 -0 0 -0 -0 0 0 0 0 0 0 0 0 0 0 -0 0 -0 -0 -0 0 -0 0 0 0 0 0 0 0 0 0
0 0 0 0 0 0 0 0 0 0 0 0 0 0 0 0 0 0 0 0 0 0 0 0 0 0 0 0 0 -0 0 0 0 0 0 0 0 0 0 0 0 0 -0 0 -0 0 0 0 0 0 0 0 0 0
0 0 0 0 0 0 0 0 0 0 0 0 0 0 0 0 0 0 0 0 0 0 0 0 0 0 0 0 0 0 0 0 0 0 0 0 0 0 0 0 0 0 0 0 0 0 0 0 0 0 0 0 0 0
0 0 0 0 0 0 0 0 0 0 0 0 0 0 0 0 0 0 0 0 -0 0 0 0 0 0 0 -0 -0 0 0 0 0 0 0 0 0 0 0 0 0 0 0 0 0 0 0 0 0 0 0 0 0 0
0 0 0 0 0 0 0 0 0 0 0 0 0 0 0 0 0 0 0 0 0 0 0 0 0 0 0 0 0 0 0 0 0 0 0 0 0 0 0 0 0 0 0 0 0 0 0 0 0 0 0 0 0 0
0 0 0 0 0 0 0 0 0 0 0 0 0 0 0 0 0 0 0 0 0 0 0 0 0 0 0 0 0 0 0 0 -0 0 0 0 0 0 0 0 0 0 0 0 0 0 0 0 0 0 0 0 0 0
0 0 0 0 0 0 0 0 0 0 0 0 0 0 0 0 0 -0 -0 0 0 0 0 0 0 0 0 0 0 0 0 0 0 0 0 0 0 0 0 0 0 0 0 0 0 0 0 0 0 0 0 0 0 0
0 0 0 0 0 0 0 0 0 0 0 0 0 0 0 0 0 0 0 0 0 0 0 0 0 0 0 0 0 0 0 0 0 0 0 0 0 0 0 0 0 0 0 0 0 0 0 0 0 0 0 0 0 0
0 0 0 0 0 0 0 0 0 0 0 0 0 0 0 0 0 0 0 0 0 0 0 0 0 0 0 0 0 0 0 0 0 0 0 0 0 0 0 0 0 0 0 0 0 0 0 0 0 0 0 0 0 0
0 0 0 0 0 0 0 0 0 0 0 0 0 0 0 0 0 0 0 0 0 0 0 0 0 0 0 0 0 0 0 0 0 0 0 0 0 0 0 0 0 0 0 0 0 0 0 0 0 0 0 0 0 0
0 0 0 0 0 0 0 0 0 0 0 0 0 0 0 0 0 0 0 0 0 0 0 0 0 0 0 0 0 0 0 0 0 0 0 0 0 -0 -0 -0 -0 0 0 0 0 0 0 0 0 0 0 0 0 0
0 0 0 0 0 0 0 0 0 0 0 0 0 0 0 0 0 0 0 0 0 0 0 0 0 0 0 0 0 0 0 0 0 0 0 0 -0 -0 -0 -0 -0 -0 0 0 0 0 0 0 0 0 0 0 0 0
0 0 0 0 0 0 0 0 0 0 0 0 0 0 0 0 0 0 0 0 0 0 0 0 0 0 0 0 0 0 0 0 0 -0 0 -0 -0 -0 -0 -0 0 0 0 0 -0 0 0 0 0 0 0 0 0 0
0 0 0 0 0 0 0 0 0 0 0 0 0 0 0 0 0 0 0 0 0 0 0 0 0 0 0 0 0 0 0 -0 -0 0 0 -0 -0 -0 0 -0 -0 -0 0 0 0 0 0 0 0 0 0 0 0 0
0 0 0 0 0 0 0 0 0 0 0 0 0 0 0 0 0 0 0 0 0 0 0 0 0 0 0 0 0 -0 0 0 0 0 -0 -0 -0 -0 -0 -0 -0 -0 0 0 0 0 0 0 0 0 0 0 0 0
0 0 0 0 0 0 0 0 0 0 0 0 0 0 0 0 0 0 0 0 0 0 0 0 0 0 0 0 0 0 0 0 -0 -0 -0 -0 -0 -0 -0 -0 -0 0 0 0 0 0 0 0 0 0 0 0 0 0
0 0 0 0 0 0 0 0 0 0 -0 0 -0 -0 0 0 0 0 0 0 0 0 0 0 0 0 0 -0 -0 0 0 0 0 0 -0 -0 -0 -0 -0 -0 0 0 0 0 0 0 0 0 0 0 0 0 0 0
0 0 0 0 0 0 0 0 0 0 -0 -0 -0 -0 0 0 0 0 0 0 0 0 0 0 0 0 0 0 0 0 0 0 0 0 0 -0 -0 -0 -0 0 0 0 0 0 0 0 0 0 0 0 0 0 0 0
0 0 0 0 0 0 0 0 0 0 0 -0 0 0 0 0 0 0 0 0 0 0 0 0 0 0 0 0 0 0 0 0 0 0 0 0 -0 -0 0 0 0 0 0 0 0 0 0 0 0 0 0 0 0 0
0 0 0 0 0 0 0 0 0 0 0 0 0 0 0 0 0 0 0 0 0 0 0 0 0 0 0 0 0 0 0 0 0 0 0 -0 -0 0 0 0 0 0 0 0 0 0 0 0 0 0 0 0 0 0
0 -0 0 0 0 -0 0 0 0 0 0 0 0 0 0 0 0 0 0 0 0 0 0 0 0 0 0 0 0 0 0 0 0 0 0 -0 0 0 0 0 0 0 0 0 0 0 0 0 0 0 0 0 0 0
0 0 0 0 0 0 0 0 0 0 0 0 0 0 0 0 0 0 0 0 0 0 0 0 0 0 0 0 0 0 0 0 0 0 0 0 0 0 0 0 0 0 0 0 0 0 0 0 0 0 0 0 0 0
0 0 0 0 0 0 0 0 0 0 0 0 0 0 0 0 0 0 0 -0 0 0 0 0 0 0 0 0 0 0 0 0 0 0 0 0 0 0 0 0 0 0 0 0 0 0 0 0 0 0 0 0 0 0
0 0 0 0 0 0 0 0 0 0 0 0 0 0 -0 0 0 0 -0 -0 0 0 0 0 0 0 0 0 0 0 0 0 0 0 0 0 0 0 0 0 0 0 0 0 0 0 0 0 0 0 0 0 0 0
-0 0 0 0 0 -0 -0 -0 -0 -0 0 0 0 0 0 0 0 -0 0 0 0 0 0 0 0 0 0 0 0 0 0 0 0 0 0 0 0 0 0 0 0 0 0 0 0 0 0 0 0 0 0 0 0 0
-0 -0 0 0 0 0 0 0 0 0 0 0 0 0 0 0 0 0 0 0 0 0 0 0 0 0 0 0 0 0 0 0 0 0 0 0 0 0 0 0 0 0 0 0 0 0 0 0 0 0 0 0 0 0
0 0 0 0 0 0 0 0 0 0 0 0 0 0 0 0 0 0 0 0 0 0 0 0 0 0 0 0 0 0 0 0 0 0 0 0 0 0 0 0 0 0 0 0 0 0 0 0 0 0 0 0 0 0
0 0 0 0 0 0 0 0 0 0 0 0 0 0 0 0 0 0 0 0 0 0 0 0 0 0 0 0 0 0 0 0 0 0 0 0 0 0 0 0 0 0 0 0 0 0 0 0 0 0 0 0 0 0
0 0 0 0 0 0 0 0 0 0 0 0 0 0 0 0 0 0 0 0 0 0 0 0 0 0 0 0 0 0 0 0 0 0 0 0 0 0 0 0 0 0 0 0 0 0 0 0 0 0 0 0 0 0
0 0 0 0 0 0 0 0 0 0 0 0 0 0 0 0 0 0 0 0 0 0 0 0 0 0 0 0 0 0 0 0 0 0 0 0 0 0 0 0 0 0 0 0 0 0 0 0 0 0 0 0 0 0
0 0 0 0 0 0 0 0 0 0 0 0 0 0 0 0 0 0 0 0 0 0 0 0 0 0 0 0 0 0 0 0 0 0 0 0 0 0 0 0 0 0 0 0 0 0 0 0 0 0 0 0 0 0
0 0 0 0 0 0 0 0 0 0 0 0 0 0 0 0 0 0 0 0 0 0 0 0 0 0 0 0 0 0 0 0 0 0 0 0 0 0 0 0 0 0 0 0 0 0 0 0 0 0 0 0 0 0
Wind_Speed_500mb
68 60 49 46 42 38 34 36 35 32 29 23 23 30 33 25 24 23 10 9 5 6 18 13 14 12 20 23 14 32 17 20 14 15 10 9 8 9 8 26 18 15 11 11 13 11 7 58 14 13 4 14 21 23
58 54 47 48 45 38 32 30 34 35 32 24 26 36 36 29 25 20 8 7 14 9 16 23 24 25 21 20 22 18 11 13 13 8 10 7 6 8 18 3 23 9 9 5 11 6 10 21 25 23 23 22 24 25
42 44 47 44 46 40 32 29 30 38 35 29 26 24 32 33 26 23 13 13 8 10 25 8 4 4 5 12 13 16 15 16 9 11 8 4 8 10 10 9 8 9 25 7 12 12 17 20 20 22 22 22 20 22
46 46 51 47 49 41 36 27 32 41 39 29 28 27 28 36 30 24 18 10 14 5 7 5 2 1 2 3 10 14 17 13 13 18 7 5 7 14 7 8 10 11 11 6 10 17 21 20 18 16 19 19 20 19
45 44 47 45 42 41 40 30 27 46 35 30 28 27 20 39 35 27 16 16 18 11 8 13 15 3 2 1 3 7 9 12 17 13 4 6 11 11 11 2 10 17 9 5 5 11 16 12 11 13 15 20 21 21
50 53 52 45 41 41 39 33 25 36 31 26 27 27 19 32 33 24 8 29 27 26 7 6 7 8 3 2 2 3 7 9 15 13 11 11 9 8 5 5 8 13 14 16 10 9 19 14 10 11 14 17 20 21
38 51 49 43 44 38 39 37 27 33 35 30 25 17 27 30 37 29 9 1 8 32 5 7 4 3 3 4 2 1 5 7 9 9 10 18 11 7 2 4 16 14 13 14 15 17 11 3 6 6 8 11 15 19
45 41 49 49 46 39 38 35 35 33 34 29 25 16 33 28 39 46 38 13 19 27 7 5 3 6 8 4 4 2 4 5 8 9 9 15 7 3 3 16 19 16 13 12 10 9 12 8 8 9 9 8 12 18
53 46 44 49 49 39 37 33 38 37 28 25 19 26 26 18 12 22 35 37 37 11 6 8 5 5 11 5 4 5 7 5 9 4 7 7 5 6 9 21 19 15 11 18 12 9 12 12 13 14 14 15 15 16
49 52 49 44 42 44 38 37 36 36 30 20 29 18 9 13 23 33 30 23 23 12 8 8 17 5 13 9 9 5 7 5 5 9 3 5 4 11 7 15 21 17 10 11 10 9 7 10 13 15 17 16 16 15
45 47 52 53 47 45 45 39 42 39 31 28 16 9 11 36 37 11 11 11 12 8 14 14 24 12 15 8 6 10 4 4 5 5 5 6 5 15 16 20 18 14 11 11 17 17 15 16 15 15 16 17 15 12
43 45 48 52 51 51 49 42 43 45 21 25 15 14 31 14 10 8 10 11 12 11 24 13 22 27 11 10 8 5 4 3 8 6 3 5 7 19 20 18 15 15 16 18 18 21 22 22 20 19 16 13 11 12
42 45 50 50 52 50 47 42 45 41 30 35 13 13 12 13 12 11 18 8 9 11 16 20 8 10 7 6 0 1 4 8 5 4 5 5 25 22 22 22 20 18 20 22 24 24 25 25 22 18 16 12 11 10
45 41 49 50 54 50 44 41 56 41 19 13 11 11 9 10 10 9 13 13 13 29 33 31 15 5 5 7 4 6 5 5 5 7 1 11 28 30 26 24 24 24 25 25 25 23 19 16 17 14 12 9 5 5
44 45 49 49 52 52 43 48 49 35 11 8 7 7 13 5 5 5 10 25 26 39 43 26 11 7 4 6 6 6 5 8 9 2 6 34 38 37 32 26 24 25 25 19 20 20 19 17 13 10 5 3 3 4
49 45 49 52 53 50 43 46 42 22 6 6 7 6 7 7 5 6 15 20 32 42 41 15 8 7 9 7 9 13 7 8 4 9 33 42 37 33 31 26 25 26 23 22 22 19 16 12 7 4 4 4 6 9
52 39 52 56 59 48 51 43 22 14 10 5 6 9 14 15 10 15 17 21 31 48 7 9 13 12 8 8 9 8 2 6 28 30 34 35 37 36 33 32 32 28 24 22 20 16 13 8 6 11 12 17 16 20
48 37 58 60 57 57 52 24 16 10 11 14 9 9 10 9 14 16 15 26 27 34 17 3 6 7 7 8 6 9 15 31 34 38 37 38 36 36 34 35 32 26 23 21 17 13 9 8 10 1 10 14 17 18
44 43 61 65 65 40 19 16 14 8 11 6 7 7 10 8 8 19 24 31 13 19 4 4 2 6 2 6 10 25 36 38 42 37 36 33 33 37 35 32 30 25 23 19 14 6 1 4 11 5 5 9 13 12
40 48 61 62 73 7 10 8 19 7 9 12 12 17 10 9 16 20 30 25 13 7 7 5 1 5 7 4 7 29 37 45 47 46 37 34 34 36 32 30 24 22 19 16 13 12 5 1 4 5 10 15 18 13
52 51 53 61 48 18 9 9 14 11 12 14 21 20 8 16 13 15 13 21 12 8 6 4 7 7 13 12 20 31 39 35 37 35 43 45 37 30 30 24 22 21 16 12 11 10 8 7 6 9 14 13 22 20
64 59 44 63 15 10 5 12 15 18 11 14 18 15 10 10 11 10 16 14 9 7 7 10 13 19 22 23 24 29 36 29 30 36 36 41 38 33 28 23 22 19 15 12 10 10 8 8 14 14 13 14 20 12
68 66 38 14 8 15 9 18 6 17 8 18 20 11 6 7 11 19 10 4 6 9 13 16 21 22 28 35 35 37 36 34 36 37 39 32 30 28 24 21 18 16 14 12 11 8 13 21 24 16 11 16 11 13
57 31 19 23 15 10 12 8 11 10 10 9 9 8 10 10 17 9 5 10 11 18 20 28 31 31 29 27 27 33 30 30 34 36 33 33 30 25 21 19 16 15 13 14 12 11 14 11 16 14 11 16 13 16
10 5 5 7 8 10 8 11 8 8 6 8 8 6 8 12 8 9 6 12 22 25 27 29 27 28 31 31 31 29 30 33 36 35 30 27 29 26 22 18 16 16 13 11 8 8 11 15 17 15 13 16 18 20
7 3 6 5 7 7 10 10 11 11 8 7 5 11 8 6 9 4 6 10 19 28 36 37 35 33 31 31 32 30 30 31 32 32 26 26 23 22 20 18 11 8 10 14 16 12 11 17 20 18 19 18 23 24
5 5 3 4 2 10 7 8 12 7 6 8 9 11 8 8 8 7 7 13 16 27 33 31 26 29 33 33 32 34 33 33 31 34 36 35 31 29 24 17 17 19 14 13 14 14 15 20 21 19 16 15 17 22
5 2 8 9 8 8 5 5 5 4 5 2 14 8 5 7 6 6 7 12 18 28 31 22 20 30 43 48 45 43 41 39 33 25 23 21 19 17 15 15 15 15 14 14 13 12 13 12 11 11 12 16 20 24
7 8 10 9 9 9 8 5 5 6 4 7 3 6 6 8 7 8 14 16 25 32 32 33 35 38 37 32 27 29 35 30 24 23 17 14 12 10 9 9 9 9 9 10 11 10 9 11 12 14 16 16 17 20
6 3 8 6 5 5 7 10 11 9 9 12 14 20 21 15 18 16 17 16 17 20 26 28 29 27 31 32 32 31 31 28 23 17 12 11 13 6 7 7 7 7 7 7 8 7 8 10 11 12 16 18 15 18
6 5 7 9 8 13 16 19 20 17 15 18 22 23 19 13 12 21 27 29 30 29 23 28 26 26 28 28 25 25 24 23 19 14 9 8 8 7 7 5 5 4 4 5 5 7 11 12 12 14 16 19 23 25
6 5 9 7 9 13 8 6 6 8 10 11 13 16 14 13 11 5 16 24 19 24 28 29 30 28 28 27 24 19 15 17 15 12 9 7 5 4 3 2 2 2 3 4 7 10 11 13 15 17 21 23 27 32
13 16 16 14 12 14 10 10 7 7 7 8 6 8 10 10 10 6 18 29 27 29 34 34 29 28 25 22 20 16 14 13 11 9 7 5 3 2 2 1 1 2 5 8 9 11 13 16 20 24 27 31 34 37
Wind_Direction_500mb
195 182 188 189 189 186 191 203 203 205 201 197 199 193 197 193 194 195 212 212 202 280 290 328 310 297 321 342 341 337 334 6 356 13 356 353 334 354 356 29 16 40 334 26 355 40 51 352 19 56 345 46 30 38
181 183 188 191 194 192 190 199 202 201 200 196 201 201 201 198 191 185 167 182 222 246 267 283 276 263 272 286 309 312 296 17 15 358 20 313 321 341 335 31 23 48 29 50 27 73 72 38 69 53 61 55 36 34
196 195 193 196 193 190 188 187 204 202 192 192 197 203 207 201 199 198 208 220 264 283 309 266 18 53 243 260 246 277 32 11 22 357 330 303 287 337 3 24 41 73 30 74 169 85 76 71 63 59 57 54 46 37
195 196 193 197 188 190 190 185 196 201 198 194 204 208 212 206 204 204 225 225 231 282 282 302 64 55 287 275 246 253 274 315 315 310 305 319 290 343 358 358 53 21 39 32 95 127 114 76 58 53 51 49 45 42
188 189 187 185 184 192 192 187 192 196 206 202 202 213 229 210 204 208 224 247 243 234 327 311 308 155 17 9 275 252 257 290 304 302 315 294 324 339 348 277 53 6 17 11 72 52 86 91 67 51 50 45 42 40
191 187 185 180 189 188 189 189 185 191 189 194 205 208 221 197 197 200 264 248 233 229 286 298 352 199 292 247 266 261 252 279 283 291 306 290 317 342 331 25 88 73 64 40 110 118 109 122 79 55 52 52 50 48
188 189 184 180 178 179 184 188 188 185 193 197 203 235 197 193 195 194 184 258 199 202 226 275 218 140 243 217 254 281 283 298 313 308 265 272 293 318 250 324 132 102 83 87 117 116 107 124 87 50 45 50 52 51
186 188 189 184 181 181 186 190 188 185 189 191 200 214 187 189 205 220 222 273 179 175 199 269 243 170 164 172 203 165 249 264 245 254 287 273 262 221 240 131 131 129 119 91 97 98 109 109 79 53 46 52 62 51
179 175 179 186 185 177 181 182 180 178 184 183 211 189 196 216 214 218 229 230 180 187 221 204 239 173 175 144 165 187 237 254 245 241 248 292 247 218 118 151 148 155 179 154 136 119 109 89 74 59 58 57 67 55
178 180 179 174 174 183 184 177 173 176 174 175 174 179 196 194 155 153 141 174 186 213 228 247 234 170 176 164 190 206 231 254 233 215 176 237 234 129 112 134 134 142 152 158 159 162 148 107 85 70 68 69 74 69
174 179 178 181 182 182 183 177 174 168 165 173 178 196 164 153 165 173 162 173 166 202 213 228 214 161 198 185 182 219 230 268 269 141 226 210 187 144 125 115 119 120 113 91 90 93 94 117 117 103 89 84 80 75
176 179 179 180 178 178 179 175 174 173 174 181 160 176 162 168 186 195 179 177 197 210 172 192 209 191 175 193 219 208 230 268 248 126 231 250 109 145 143 130 119 114 111 103 102 102 100 102 108 111 109 103 93 73
182 182 181 180 178 175 182 188 186 176 187 192 212 191 179 176 193 209 174 173 186 150 154 169 141 137 139 159 240 205 243 241 321 226 232 60 136 142 140 135 121 118 114 108 103 104 105 105 107 109 111 98 73 51
183 182 182 181 178 176 181 181 172 179 181 218 195 183 222 177 225 200 185 172 148 148 156 155 127 135 97 161 160 223 226 264 251 240 194 144 148 143 142 137 138 130 134 130 135 143 136 122 121 112 108 101 74 41
179 179 181 177 176 173 174 172 185 197 183 234 231 236 209 212 48 125 121 149 140 152 143 133 103 132 171 182 206 226 220 236 225 323 103 132 139 142 140 148 163 158 158 151 140 137 131 126 121 121 119 99 60 25
177 176 181 175 172 168 170 169 181 184 226 250 246 283 320 182 159 154 151 142 152 151 143 170 147 182 192 189 189 210 233 226 104 96 127 140 145 151 159 163 156 147 149 145 142 141 139 139 137 108 58 16 346 348
170 174 178 173 166 167 168 169 166 188 222 238 234 256 273 297 217 187 178 176 166 157 176 179 179 190 170 188 209 215 247 91 124 127 141 152 155 160 166 157 151 151 149 146 150 152 148 137 99 43 3 342 343 348
172 172 170 167 159 164 167 171 179 203 236 236 256 189 206 300 142 166 182 178 172 185 193 240 175 199 198 199 205 127 117 116 130 137 142 156 160 163 158 154 151 149 151 153 157 152 148 109 61 190 338 326 354 328
172 164 165 164 166 151 157 193 191 218 215 175 219 185 200 210 149 184 186 180 181 182 184 206 227 229 142 73 121 130 140 142 135 136 151 154 153 154 155 155 154 154 161 156 130 132 134 184 218 216 283 295 300 307
167 160 172 176 172 160 140 156 187 216 198 206 187 186 191 179 189 186 188 185 147 153 192 222 351 60 52 109 169 165 157 154 148 140 145 151 161 159 160 154 157 165 146 155 172 183 196 341 263 264 274 280 301 290
160 158 168 176 188 229 176 174 179 179 164 189 170 157 157 159 167 179 174 182 202 217 156 135 142 157 130 140 167 171 162 163 162 163 161 158 160 159 147 160 181 148 168 168 183 211 264 223 262 266 276 285 278 289
188 178 170 181 190 163 219 232 170 150 153 157 169 172 159 172 158 157 154 192 203 139 133 154 159 139 139 144 153 159 154 154 159 160 160 155 153 159 165 174 167 176 178 190 195 214 221 236 241 274 293 276 293 315
164 163 155 157 139 184 217 162 130 167 156 172 165 157 162 148 156 155 201 183 127 166 149 159 144 139 156 159 159 158 156 151 149 156 151 152 158 160 169 172 174 179 179 191 199 209 228 244 277 285 265 310 326 302
153 172 184 182 172 154 166 168 152 130 128 179 166 157 147 145 159 207 204 149 147 154 152 148 151 146 147 152 155 156 152 157 159 147 154 155 154 156 164 165 170 173 178 202 219 210 253 273 279 295 317 303 296 293
149 48 101 104 131 138 141 145 167 170 143 173 158 146 143 163 185 200 195 141 169 175 172 167 164 165 160 158 155 155 164 160 154 154 158 160 160 156 159 165 170 200 200 208 238 245 269 277 286 284 275 275 280 279
94 20 2 92 153 166 158 152 170 158 135 144 152 115 150 178 190 194 79 141 170 176 175 171 169 167 167 167 160 158 157 163 162 153 156 171 169 166 172 181 202 243 222 209 212 237 251 274 290 285 274 284 294 296
135 117 70 72 50 119 104 71 106 120 143 150 158 165 165 193 179 84 115 72 147 170 170 167 173 174 163 157 155 156 154 159 171 169 169 170 171 171 177 181 195 227 255 269 265 256 243 243 251 265 271 279 275 289
83 17 153 133 94 28 77 92 124 126 128 17 156 173 192 18 72 79 88 136 140 166 161 152 155 163 162 168 174 178 173 173 182 183 176 173 178 190 202 215 233 252 269 278 282 279 275 273 267 275 277 264 261 275
95 111 100 70 86 75 44 29 82 64 18 317 130 104 88 73 75 97 133 133 147 160 151 147 140 160 167 181 179 166 164 170 175 167 167 174 177 193 204 222 240 257 269 279 285 289 293 298 300 297 298 301 297 304
108 93 103 80 61 74 59 17 95 96 65 68 99 108 93 90 83 114 117 138 162 166 173 174 172 176 163 150 145 150 160 160 155 160 165 173 206 199 221 233 251 269 282 293 307 318 311 314 319 330 334 331 330 299
103 109 94 80 82 91 111 111 100 85 81 69 91 116 125 125 108 122 109 89 146 163 164 145 147 153 157 163 165 166 163 167 173 186 192 196 210 219 218 241 259 258 274 288 300 306 317 323 328 327 327 311 311 315
71 82 131 118 119 154 154 178 132 118 133 107 105 121 147 123 95 113 129 115 126 142 150 150 146 152 163 175 170 175 178 177 176 185 192 199 196 189 209 220 237 290 310 319 322 325 323 323 322 318 317 315 311 314
101 90 103 108 135 166 172 177 133 126 118 113 80 66 54 61 93 143 127 116 126 151 158 169 177 172 170 170 173 175 174 177 175 169 166 168 167 142 134 134 9 354 343 337 333 328 328 328 325 322 319 318 320 321
Wind_Speed_850mb
68 60 49 46 42 38 34 36 35 32 29 23 23 30 33 25 24 23 10 9 5 6 18 13 14 12 20 23 14 32 17 20 14 15 10 9 8 9 8 26 18 15 11 11 13 11 7 58 14 13 4 14 21 23
58 54 47 48 45 38 32 30 34 35 32 24 26 36 36 29 25 20 8 7 14 9 16 23 24 25 21 20 22 18 11 13 13 8 10 7 6 8 18 3 23 9 9 5 11 6 10 21 25 23 23 22 24 25
42 44 47 44 46 40 32 29 30 38 35 29 26 24 32 33 26 23 13 13 8 10 25 8 4 4 5 12 13 16 15 16 9 11 8 4 8 10 10 9 8 9 25 7 12 12 17 20 20 22 22 22 20 22
46 46 51 47 49 41 36 27 32 41 39 29 28 27 28 36 30 24 18 10 14 5 7 5 2 1 2 3 10 14 17 13 13 18 7 5 7 14 7 8 10 11 11 6 10 17 21 20 18 16 19 19 20 19
45 44 47 45 42 41 40 30 27 46 35 30 28 27 20 39 35 27 16 16 18 11 8 13 15 3 2 1 3 7 9 12 17 13 4 6 11 11 11 2 10 17 9 5 5 11 16 12 11 13 15 20 21 21
50 53 52 45 41 41 39 33 25 36 31 26 27 27 19 32 33 24 8 29 27 26 7 6 7 8 3 2 2 3 7 9 15 13 11 11 9 8 5 5 8 13 14 16 10 9 19 14 10 11 14 17 20 21
38 51 49 43 44 38 39 37 27 33 35 30 25 17 27 30 37 29 9 1 8 32 5 7 4 3 3 4 2 1 5 7 9 9 10 18 11 7 2 4 16 14 13 14 15 17 11 3 6 6 8 11 15 19
45 41 49 49 46 39 38 35 35 33 34 29 25 16 33 28 39 46 38 13 19 27 7 5 3 6 8 4 4 2 4 5 8 9 9 15 7 3 3 16 19 16 13 12 10 9 12 8 8 9 9 8 12 18
53 46 44 49 49 39 37 33 38 37 28 25 19 26 26 18 12 22 35 37 37 11 6 8 5 5 11 5 4 5 7 5 9 4 7 7 5 6 9 21 19 15 11 18 12 9 12 12 13 14 14 15 15 16
49 52 49 44 42 44 38 37 36 36 30 20 29 18 9 13 23 33 30 23 23 12 8 8 17 5 13 9 9 5 7 5 5 9 3 5 4 11 7 15 21 17 10 11 10 9 7 10 13 15 17 16 16 15
45 47 52 53 47 45 45 39 42 39 31 28 16 9 11 36 37 11 11 11 12 8 14 14 24 12 15 8 6 10 4 4 5 5 5 6 5 15 16 20 18 14 11 11 17 17 15 16 15 15 16 17 15 12
43 45 48 52 51 51 49 42 43 45 21 25 15 14 31 14 10 8 10 11 12 11 24 13 22 27 11 10 8 5 4 3 8 6 3 5 7 19 20 18 15 15 16 18 18 21 22 22 20 19 16 13 11 12
42 45 50 50 52 50 47 42 45 41 30 35 13 13 12 13 12 11 18 8 9 11 16 20 8 10 7 6 0 1 4 8 5 4 5 5 25 22 22 22 20 18 20 22 24 24 25 25 22 18 16 12 11 10
45 41 49 50 54 50 44 41 56 41 19 13 11 11 9 10 10 9 13 13 13 29 33 31 15 5 5 7 4 6 5 5 5 7 1 11 28 30 26 24 24 24 25 25 25 23 19 16 17 14 12 9 5 5
44 45 49 49 52 52 43 48 49 35 11 8 7 7 13 5 5 5 10 25 26 39 43 26 11 7 4 6 6 6 5 8 9 2 6 34 38 37 32 26 24 25 25 19 20 20 19 17 13 10 5 3 3 4
49 45 49 52 53 50 43 46 42 22 6 6 7 6 7 7 5 6 15 20 32 42 41 15 8 7 9 7 9 13 7 8 4 9 33 42 37 33 31 26 25 26 23 22 22 19 16 12 7 4 4 4 6 9
52 39 52 56 59 48 51 43 22 14 10 5 6 9 14 15 10 15 17 21 31 48 7 9 13 12 8 8 9 8 2 6 28 30 34 35 37 36 33 32 32 28 24 22 20 16 13 8 6 11 12 17 16 20
48 37 58 60 57 57 52 24 16 10 11 14 9 9 10 9 14 16 15 26 27 34 17 3 6 7 7 8 6 9 15 31 34 38 37 38 36 36 34 35 32 26 23 21 17 13 9 8 10 1 10 14 17 18
44 43 61 65 65 40 19 16 14 8 11 6 7 7 10 8 8 19 24 31 13 19 4 4 2 6 2 6 10 25 36 38 42 37 36 33 33 37 35 32 30 25 23 19 14 6 1 4 11 5 5 9 13 12
40 48 61 62 73 7 10 8 19 7 9 12 12 17 10 9 16 20 30 25 13 7 7 5 1 5 7 4 7 29 37 45 47 46 37 34 34 36 32 30 24 22 19 16 13 12 5 1 4 5 10 15 18 13
52 51 53 61 48 18 9 9 14 11 12 14 21 20 8 16 13 15 13 21 12 8 6 4 7 7 13 12 20 31 39 35 37 35 43 45 37 30 30 24 22 21 16 12 11 10 8 7 6 9 14 13 22 20
64 59 44 63 15 10 5 12 15 18 11 14 18 15 10 10 11 10 16 14 9 7 7 10 13 19 22 23 24 29 36 29 30 36 36 41 38 33 28 23 22 19 15 12 10 10 8 8 14 14 13 14 20 12
68 66 38 14 8 15 9 18 6 17 8 18 20 11 6 7 11 19 10 4 6 9 13 16 21 22 28 35 35 37 36 34 36 37 39 32 30 28 24 21 18 16 14 12 11 8 13 21 24 16 11 16 11 13
57 31 19 23 15 10 12 8 11 10 10 9 9 8 10 10 17 9 5 10 11 18 20 28 31 31 29 27 27 33 30 30 34 36 33 33 30 25 21 19 16 15 13 14 12 11 14 11 16 14 11 16 13 16
10 5 5 7 8 10 8 11 8 8 6 8 8 6 8 12 8 9 6 12 22 25 27 29 27 28 31 31 31 29 30 33 36 35 30 27 29 26 22 18 16 16 13 11 8 8 11 15 17 15 13 16 18 20
7 3 6 5 7 7 10 10 11 11 8 7 5 11 8 6 9 4 6 10 19 28 36 37 35 33 31 31 32 30 30 31 32 32 26 26 23 22 20 18 11 8 10 14 16 12 11 17 20 18 19 18 23 24
5 5 3 4 2 10 7 8 12 7 6 8 9 11 8 8 8 7 7 13 16 27 33 31 26 29 33 33 32 34 33 33 31 34 36 35 31 29 24 17 17 19 14 13 14 14 15 20 21 19 16 15 17 22
5 2 8 9 8 8 5 5 5 4 5 2 14 8 5 7 6 6 7 12 18 28 31 22 20 30 43 48 45 43 41 39 33 25 23 21 19 17 15 15 15 15 14 14 13 12 13 12 11 11 12 16 20 24
7 8 10 9 9 9 8 5 5 6 4 7 3 6 6 8 7 8 14 16 25 32 32 33 35 38 37 32 27 29 35 30 24 23 17 14 12 10 9 9 9 9 9 10 11 10 9 11 12 14 16 16 17 20
6 3 8 6 5 5 7 10 11 9 9 12 14 20 21 15 18 16 17 16 17 20 26 28 29 27 31 32 32 31 31 28 23 17 12 11 13 6 7 7 7 7 7 7 8 7 8 10 11 12 16 18 15 18
6 5 7 9 8 13 16 19 20 17 15 18 22 23 19 13 12 21 27 29 30 29 23 28 26 26 28 28 25 25 24 23 19 14 9 8 8 7 7 5 5 4 4 5 5 7 11 12 12 14 16 19 23 25
6 5 9 7 9 13 8 6 6 8 10 11 13 16 14 13 11 5 16 24 19 24 28 29 30 28 28 27 24 19 15 17 15 12 9 7 5 4 3 2 2 2 3 4 7 10 11 13 15 17 21 23 27 32
13 16 16 14 12 14 10 10 7 7 7 8 6 8 10 10 10 6 18 29 27 29 34 34 29 28 25 22 20 16 14 13 11 9 7 5 3 2 2 1 1 2 5 8 9 11 13 16 20 24 27 31 34 37
Wind_Direction_850mb
195 182 188 189 189 186 191 203 203 205 201 197 199 193 197 193 194 195 212 212 202 280 290 328 310 297 321 342 341 337 334 6 356 13 356 353 334 354 356 29 16 40 334 26 355 40 51 352 19 56 345 46 30 38
181 183 188 191 194 192 190 199 202 201 200 196 201 201 201 198 191 185 167 182 222 246 267 283 276 263 272 286 309 312 296 17 15 358 20 313 321 341 335 31 23 48 29 50 27 73 72 38 69 53 61 55 36 34
196 195 193 196 193 190 188 187 204 202 192 192 197 203 207 201 199 198 208 220 264 283 309 266 18 53 243 260 246 277 32 11 22 357 330 303 287 337 3 24 41 73 30 74 169 85 76 71 63 59 57 54 46 37
195 196 193 197 188 190 190 185 196 201 198 194 204 208 212 206 204 204 225 225 231 282 282 302 64 55 287 275 246 253 274 315 315 310 305 319 290 343 358 358 53 21 39 32 95 127 114 76 58 53 51 49 45 42
188 189 187 185 184 192 192 187 192 196 206 202 202 213 229 210 204 208 224 247 243 234 327 311 308 155 17 9 275 252 257 290 304 302 315 294 324 339 348 277 53 6 17 11 72 52 86 91 67 51 50 45 42 40
191 187 185 180 189 188 189 189 185 191 189 194 205 208 221 197 197 200 264 248 233 229 286 298 352 199 292 247 266 261 252 279 283 291 306 290 317 342 331 25 88 73 64 40 110 118 109 122 79 55 52 52 50 48
188 189 184 180 178 179 184 188 188 185 193 197 203 235 197 193 195 194 184 258 199 202 226 275 218 140 243 217 254 281 283 298 313 308 265 272 293 318 250 324 132 102 83 87 117 116 107 124 87 50 45 50 52 51
186 188 189 184 181 181 186 190 188 185 189 191 200 214 187 189 205 220 222 273 179 175 199 269 243 170 164 172 203 165 249 264 245 254 287 273 262 221 240 131 131 129 119 91 97 98 109 109 79 53 46 52 62 51
179 175 179 186 185 177 181 182 180 178 184 183 211 189 196 216 214 218 229 230 180 187 221 204 239 173 175 144 165 187 237 254 245 241 248 292 247 218 118 151 148 155 179 154 136 119 109 89 74 59 58 57 67 55
178 180 179 174 174 183 184 177 173 176 174 175 174 179 196 194 155 153 141 174 186 213 228 247 234 170 176 164 190 206 231 254 233 215 176 237 234 129 112 134 134 142 152 158 159 162 148 107 85 70 68 69 74 69
174 179 178 181 182 182 183 177 174 168 165 173 178 196 164 153 165 173 162 173 166 202 213 228 214 161 198 185 182 219 230 268 269 141 226 210 187 144 125 115 119 120 113 91 90 93 94 117 117 103 89 84 80 75
176 179 179 180 178 178 179 175 174 173 174 181 160 176 162 168 186 195 179 177 197 210 172 192 209 191 175 193 219 208 230 268 248 126 231 250 109 145 143 130 119 114 111 103 102 102 100 102 108 111 109 103 93 73
182 182 181 180 178 175 182 188 186 176 187 192 212 191 179 176 193 209 174 173 186 150 154 169 141 137 139 159 240 205 243 241 321 226 232 60 136 142 140 135 121 118 114 108 103 104 105 105 107 109 111 98 73 51
183 182 182 181 178 176 181 181 172 179 181 218 195 183 222 177 225 200 185 172 148 148 156 155 127 135 97 161 160 223 226 264 251 240 194 144 148 143 142 137 138 130 134 130 135 143 136 122 121 112 108 101 74 41
179 179 181 177 176 173 174 172 185 197 183 234 231 236 209 212 48 125 121 149 140 152 143 133 103 132 171 182 206 226 220 236 225 323 103 132 139 142 140 148 163 158 158 151 140 137 131 126 121 121 119 99 60 25
177 176 181 175 172 168 170 169 181 184 226 250 246 283 320 182 159 154 151 142 152 151 143 170 147 182 192 189 189 210 233 226 104 96 127 140 145 151 159 163 156 147 149 145 142 141 139 139 137 108 58 16 346 348
170 174 178 173 166 167 168 169 166 188 222 238 234 256 273 297 217 187 178 176 166 157 176 179 179 190 170 188 209 215 247 91 124 127 141 152 155 160 166 157 151 151 149 146 150 152 148 137 99 43 3 342 343 348
172 172 170 167 159 164 167 171 179 203 236 236 256 189 206 300 142 166 182 178 172 185 193 240 175 199 198 199 205 127 117 116 130 137 142 156 160 163 158 154 151 149 151 153 157 152 148 109 61 190 338 326 354 328
172 164 165 164 166 151 157 193 191 218 215 175 219 185 200 210 149 184 186 180 181 182 184 206 227 229 142 73 121 130 140 142 135 136 151 154 153 154 155 155 154 154 161 156 130 132 134 184 218 216 283 295 300 307
167 160 172 176 172 160 140 156 187 216 198 206 187 186 191 179 189 186 188 185 147 153 192 222 351 60 52 109 169 165 157 154 148 140 145 151 161 159 160 154 157 165 146 155 172 183 196 341 263 264 274 280 301 290
160 158 168 176 188 229 176 174 179 179 164 189 170 157 157 159 167 179 174 182 202 217 156 135 142 157 130 140 167 171 162 163 162 163 161 158 160 159 147 160 181 148 168 168 183 211 264 223 262 266 276 285 278 289
188 178 170 181 190 163 219 232 170 150 153 157 169 172 159 172 158 157 154 192 203 139 133 154 159 139 139 144 153 159 154 154 159 160 160 155 153 159 165 174 167 176 178 190 195 214 221 236 241 274 293 276 293 315
164 163 155 157 139 184 217 162 130 167 156 172 165 157 162 148 156 155 201 183 127 166 149 159 144 139 156 159 159 158 156 151 149 156 151 152 158 160 169 172 174 179 179 191 199 209 228 244 277 285 265 310 326 302
153 172 184 182 172 154 166 168 152 130 128 179 166 157 147 145 159 207 204 149 147 154 152 148 151 146 147 152 155 156 152 157 159 147 154 155 154 156 164 165 170 173 178 202 219 210 253 273 279 295 317 303 296 293
149 48 101 104 131 138 141 145 167 170 143 173 158 146 143 163 185 200 195 141 169 175 172 167 164 165 160 158 155 155 164 160 154 154 158 160 160 156 159 165 170 200 200 208 238 245 269 277 286 284 275 275 280 279
94 20 2 92 153 166 158 152 170 158 135 144 152 115 150 178 190 194 79 141 170 176 175 171 169 167 167 167 160 158 157 163 162 153 156 171 169 166 172 181 202 243 222 209 212 237 251 274 290 285 274 284 294 296
135 117 70 72 50 119 104 71 106 120 143 150 158 165 165 193 179 84 115 72 147 170 170 167 173 174 163 157 155 156 154 159 171 169 169 170 171 171 177 181 195 227 255 269 265 256 243 243 251 265 271 279 275 289
83 17 153 133 94 28 77 92 124 126 128 17 156 173 192 18 72 79 88 136 140 166 161 152 155 163 162 168 174 178 173 173 182 183 176 173 178 190 202 215 233 252 269 278 282 279 275 273 267 275 277 264 261 275
95 111 100 70 86 75 44 29 82 64 18 317 130 104 88 73 75 97 133 133 147 160 151 147 140 160 167 181 179 166 164 170 175 167 167 174 177 193 204 222 240 257 269 279 285 289 293 298 300 297 298 301 297 304
108 93 103 80 61 74 59 17 95 96 65 68 99 108 93 90 83 114 117 138 162 166 173 174 172 176 163 150 145 150 160 160 155 160 165 173 206 199 221 233 251 269 282 293 307 318 311 314 319 330 334 331 330 299
103 109 94 80 82 91 111 111 100 85 81 69 91 116 125 125 108 122 109 89 146 163 164 145 147 153 157 163 165 166 163 167 173 186 192 196 210 219 218 241 259 258 274 288 300 306 317 323 328 327 327 311 311 315
71 82 131 118 119 154 154 178 132 118 133 107 105 121 147 123 95 113 129 115 126 142 150 150 146 152 163 175 170 175 178 177 176 185 192 199 196 189 209 220 237 290 310 319 322 325 323 323 322 318 317 315 311 314
101 90 103 108 135 166 172 177 133 126 118 113 80 66 54 61 93 143 127 116 126 151 158 169 177 172 170 170 173 175 174 177 175 169 166 168 167 142 134 134 9 354 343 337 333 328 328 328 325 322 319 318 320 321